This demonstration page uses our WeatherBlox Daily Observations layout. Learn more.

Left ArrowRight Arrow

34.74481, -87.66753

Hourly Observations for September 24, 2019

Temp ( °F °C ) Dew Point ( °F °C ) Humidity (%) Winds ( mph kmh ) Pressure ( in mb ) Visibility ( mi km ) Precip ( " mm )
12:53 am 00:53 Clear 72 22.2 69 20.6 91 91 Calm 29.98 1015 10 16 0.00 0.00
1:53 am 01:53 Clear 72 22.2 70 21.1 94 94 Calm 29.97 1015 8 13 0.00 0.00
2:53 am 02:53 Clear 72 22.2 68 20 87 87 NNE 5 7 29.96 1015 10 16 0.00 0.00
3:53 am 03:53 Clear 72 22.2 65 18.3 79 79 NNE 7 11 29.97 1015 10 16 0.00 0.00
4:53 am 04:53 Clear 70 21.1 64 17.8 82 82 Calm 29.97 1015 10 16 0.00 0.00
5:53 am 05:53 Mostly Cloudy 67 19.4 63 17.2 87 87 Calm 29.99 1016 10 16 0.00 0.00
6:53 am 06:53 Mostly Sunny 68 20 61 16.1 78 78 NNE 5 7 30.00 1016 10 16 0.00 0.00
7:53 am 07:53 Sunny 72 22.2 61 16.1 68 68 Calm 30.00 1016 10 16 0.00 0.00
8:53 am 08:53 Sunny 74 23.3 60 15.6 62 62 ENE 3 6 30.01 1016 10 16 0.00 0.00
9:53 am 09:53 Sunny 80 26.7 58 14.4 47 47 VRB 7 11 30.01 1016 10 16 0.00 0.00
10:53 am 10:53 Sunny 82 27.8 58 14.4 44 44 ENE 7 11 30.01 1016 10 16 0.00 0.00
11:53 am 11:53 Sunny 85 29.4 56 13.3 37 37 NNW 5 7 29.99 1016 10 16 0.00 0.00
1:53 pm 13:53 Sunny 88 31.1 51 10.6 28 28 VRB 5 7 29.94 1014 10 16 0.00 0.00
2:53 pm 14:53 Sunny 91 32.8 49 9.4 24 24 NNW 9 15 29.92 1013 10 16 0.00 0.00
3:53 pm 15:53 Sunny 90 32.2 47 8.3 23 23 N 5 7 29.90 1013 10 16 0.00 0.00
4:53 pm 16:53 Sunny 91 32.8 43 6.1 19 19 WNW 5 7 29.89 1012 10 16 0.00 0.00
5:53 pm 17:53 Sunny 88 31.1 46 7.8 23 23 NW 5 7 29.89 1012 10 16 0.00 0.00
6:53 pm 18:53 Clear 79 26.1 51 10.6 38 38 NW 3 6 29.89 1012 10 16 0.00 0.00
7:53 pm 19:53 Clear 71 21.7 53 11.7 53 53 Calm 29.88 1012 10 16 0.00 0.00
8:53 pm 20:53 Clear 68 20 56 13.3 65 65 Calm 29.90 1013 10 16 0.00 0.00
9:53 pm 21:53 Clear 64 17.8 55 12.8 73 73 Calm 29.90 1013 10 16 0.00 0.00
10:53 pm 22:53 Clear 65 18.3 56 13.3 73 73 Calm 29.90 1012 10 16 0.00 0.00
11:53 pm 23:53 Clear 63 17.2 56 13.3 78 78 Calm 29.89 1012 10 16 0.00 0.00

Powered by AerisWeather